{"data":{"norad_id":47736,"intl_designator":"2021-017Q","name":"STARLINK-2147","alt_names":[],"object_type":"PAYLOAD","status":"ACTIVE","operator":null,"country":"US","launch_date":"2021-03-04","launch_site_code":"AFETR","launch_vehicle":null,"mission":null,"orbit_class":"UNKNOWN","rcs_meters":null,"size_class":null,"mass_kg":null,"dimensions":null,"purposes":["comms"],"wikipedia_slug":null,"has_3d_model":false,"image_url":null,"decayed_at":null,"tle_current":{"epoch":"2026-05-25T03:19:40.695744Z","epoch_age_seconds":59543,"freshness":"FRESH","line1":"1 47736U 21017Q   26145.13866546  .00047992  00000+0  10991-2 0  9997","line2":"2 47736  53.0727 204.4900 0004975 358.0201   2.0784 15.42320570289645","mean_motion":15.4232057,"eccentricity":0.0004975,"inclination_deg":53.0727,"raan_deg":204.49,"arg_perigee_deg":358.0201,"mean_anomaly_deg":2.0784,"bstar":0.0010991,"rev_number":28964,"period_min":93.365803971609,"perigee_km":435.87078637934,"apogee_km":442.65409882473,"semimajor_km":6817.399442602,"source":"CELESTRAK","updated_at":"2026-05-25T13:38:16.565779Z"}}}